SCP
0 0 0 0 0 0 0 0 0 0 0 0 -0 -0 -0 -0 -0 -0 0 -0 0 0 0 0 0 0 0 0 0 0 0 0 0 0 0 0 0 0 0 0 0 0 0
0 0 0 0 0 0 0 0 0 0 0 -0 -0 -0 -0 -0 -0 0 0 0 0 0 0 0 0 0 0 0 0 -0 -0 0 -0 0 0 0 0 0 0 0 0 0 0
0 0 0 0 0 0 0 0 -0 -0 -0 -0 -0 -0 -0 -0 -0 -0 0 -0 0 0 0 0 0 0 0 0 0 0 0 0 0 0 0 0 0 0 0 0 0 0 0
0 0 0 0 0 0 0 0 0 -0 -0 -0 -0 -0 -0 -0 -0 -0 0 0 0 0 0 0 0 0 0 0 0 0 0 0 0 0 0 0 0 0 0 0 0 0 0
0 0 0 0 0 0 0 0 0 0 0 0 0 0 0 0 -0 -0 -0 0 0 0 0 0 0 0 0 0 0 0 0 0 0 0 0 0 0 0 0 0 0 0 0
0 0 0 0 0 0 0 0 0 0 0 0 -0 0 0 0 -0 -0 -0 -0 0 0 0 0 0 0 0 0 0 0 0 0 0 0 0 0 0 0 0 0 0 0 0
0 0 0 0 0 0 0 0 0 0 0 0 0 0 0 0 0 -0 -0 0 0 -0 0 0 0 0 0 0 0 0 0 0 0 0 0 0 0 0 0 0 0 0 0
0 0 0 0 0 0 0 0 0 0 0 0 0 0 0 0 0 0 0 0 0 0 0 0 -0 0 0 0 0 0 0 0 0 0 0 0 0 0 0 0 0 0 0
0 0 0 0 0 0 0 0 0 0 0 0 0 0 0 0 0 0 0 0 -0 -0 -0 0 0 -0 0 0 0 0 0 0 0 0 0 0 0 0 0 0 0 0 0
0 0 0 0 0 0 0 0 0 0 0 0 0 0 0 0 0 0 0 0 0 0 0 -0 -0 -0 0 0 0 0 0 0 0 0 0 0 0 0 0 0 0 0 0
0 0 0 0 0 0 0 0 0 0 0 0 0 0 0 0 0 0 0 0 0 0 -0 -0 -0 -0 0 0 0 0 0 0 0 0 0 0 0 0 0 0 0 0 0
0 0 0 0 0 0 0 0 0 0 0 0 0 0 0 0 0 0 -0 0 0 0 0 0 0 -0 0 0 0 0 0 0 0 0 0 0 0 0 0 0 0 0 0
0 0 0 0 0 0 0 0 0 0 0 0 0 0 0 0 0 0 0 0 0 0 0 0 0 0 0 0 0 0 0 0 0 0 0 0 0 0 0 0 0 0 0
0 0 0 0 0 0 0 0 0 0 0 0 0 0 0 0 0 0 0 0 0 0 0 0 0 0 0 0 0 0 0 0 0 0 0 0 0 0 0 0 0 0 0
0 0 0 0 0 0 0 0 0 0 0 0 0 0 0 0 0 0 0 0 0 0 0 0 0 0 0 0 0 0 0 0 0 0 0 0 0 0 0 0 0 0 0
0 0 0 0 0 0 0 0 0 0 0 0 0 0 0 0 0 0 0 0 0 0 0 0 0 0 0 0 0 0 0 0 0 0 0 0 0 0 0 0 0 0 0
0 0 0 0 0 0 0 0 0 0 0 0 0 0 0 0 0 0 0 0 0 0 0 0 0 0 0 0 0 0 0 0 0 0 0 0 0 0 0 0 0 0 0
0 0 0 0 0 0 0 0 0 0 0 0 0 0 0 0 0 0 0 0 0 0 0 0 0 0 0 0 0 0 0 0 0 0 0 0 0 0 0 0 0 0 0
0 0 0 0 0 0 0 0 0 0 0 0 0 0 0 0 0 0 0 0 0 0 0 0 0 0 0 0 0 0 0 0 0 0 0 0 0 0 0 0 0 0 0
0 0 0 0 0 0 0 0 0 0 0 0 0 0 0 0 0 0 0 0 0 0 0 0 0 0 0 0 0 0 0 0 0 0 0 0 0 0 0 0 0 0 0
0 0 0 0 0 0 0 0 0 0 0 0 0 0 0 0 0 0 0 0 0 0 0 0 0 0 0 0 0 0 0 0 0 0 0 0 0 0 0 0 0 0 0
0 0 0 0 0 0 0 0 0 0 0 0 0 0 0 0 0 0 0 0 0 0 0 0 0 0 0 0 0 0 0 0 0 0 0 0 0 0 0 0 0 0 0
0 0 0 0 0 0 0 0 0 0 0 0 0 0 0 0 0 0 0 0 0 0 0 0 0 0 0 0 0 0 0 0 0 0 0 0 0 0 0 0 0 0 0
0 0 0 0 0 0 0 0 0 0 0 0 0 0 0 0 0 0 0 0 0 0 0 0 0 0 0 0 0 0 0 0 0 0 0 0 0 0 0 0 0 0 0
0 0 0 0 0 0 0 0 0 0 0 0 0 0 0 0 0 0 0 0 0 0 0 0 0 0 0 0 0 0 0 0 0 0 0 0 0 0 0 0 0 0 0
0 0 0 0 0 0 0 0 0 0 0 0 0 0 0 0 0 0 0 0 0 0 0 0 0 0 0 0 0 0 0 0 0 0 0 0 0 0 0 0 0 0 0
Wind_Speed_500mb
23 22 20 19 19 21 24 24 23 25 29 32 33 33 34 36 38 40 44 46 48 43 45 44 47 45 34 37 39 25 28 37 29 30 50 55 67 63 61 57 51 49 52
21 17 16 15 17 18 21 22 21 18 20 26 31 34 37 38 37 37 36 37 40 40 39 45 39 41 42 46 48 44 39 41 29 28 36 51 71 64 58 53 49 48 45
16 14 14 15 18 17 16 18 25 26 26 28 32 36 35 36 36 31 25 27 31 31 29 35 36 34 37 40 41 47 45 42 38 46 35 40 55 61 61 58 55 53 50
13 12 12 12 12 14 13 12 16 22 26 25 23 25 27 25 25 26 20 23 27 27 27 28 31 32 35 38 40 42 46 37 37 35 20 33 39 52 62 62 57 58 56
11 10 11 11 11 9 8 7 9 11 15 18 16 15 15 14 12 12 14 15 19 22 24 24 25 31 34 36 37 42 40 37 36 31 29 53 47 49 62 64 59 52 49
7 7 8 11 14 13 14 14 16 19 21 24 25 24 22 20 19 10 2 4 12 12 12 13 13 15 27 35 44 45 43 35 37 38 41 53 53 53 53 57 53 49 41
7 8 8 10 14 17 19 21 21 24 26 27 28 31 32 32 29 25 23 19 11 9 12 12 18 15 9 16 30 35 39 38 34 30 32 36 35 36 38 44 40 38 34
5 6 8 11 12 13 15 14 16 17 17 19 20 20 22 22 22 24 27 26 29 31 30 28 25 21 21 22 17 15 20 18 16 14 15 16 13 15 20 17 22 26 23
7 3 2 4 4 7 8 7 8 10 12 13 13 14 15 16 18 18 17 15 15 14 15 16 15 14 16 17 16 16 19 17 15 14 14 13 17 18 20 20 24 28 26
18 14 12 10 9 8 7 9 11 11 11 12 12 11 12 12 12 13 12 12 12 12 11 10 9 11 12 9 9 11 9 13 12 10 9 6 7 11 10 14 21 26 23
28 25 22 19 17 15 13 11 11 10 10 10 10 10 8 8 9 10 9 10 9 9 10 9 8 7 6 5 5 4 4 3 1 2 2 6 7 13 21 24 26 24 26
37 35 31 28 26 24 21 19 17 15 14 13 12 11 10 10 9 7 5 5 7 8 9 10 9 8 7 5 5 4 4 6 7 8 9 11 14 18 24 26 27 29 30
48 42 39 37 35 32 30 28 26 23 21 19 17 15 14 12 12 12 12 10 10 11 13 13 14 14 14 15 15 16 16 17 19 19 21 24 27 32 35 36 36 38 39
59 53 46 46 43 41 39 36 34 31 29 28 26 24 22 21 21 22 20 20 21 22 22 23 23 23 24 24 25 28 29 29 30 31 34 36 39 41 45 47 51 53 56
64 63 57 54 51 49 48 45 42 38 37 36 33 32 31 28 25 27 29 29 29 31 34 34 34 34 34 35 35 35 37 39 40 41 44 46 49 51 55 56 58 61 64
68 70 67 63 59 56 54 52 49 46 43 42 40 40 39 37 34 35 36 36 37 37 43 45 43 43 44 44 45 45 46 47 47 49 52 55 57 58 59 59 63 64 66
66 70 71 70 69 64 60 58 56 51 49 48 46 46 47 47 45 44 45 45 45 44 48 51 53 53 54 55 56 56 58 57 59 58 59 60 62 64 65 67 67 70 73
55 63 70 72 71 68 65 63 60 59 57 53 49 50 50 51 52 51 51 53 55 52 53 56 60 61 61 61 60 58 59 59 57 58 60 61 61 61 60 60 61 64 64
47 54 59 62 67 66 66 67 66 63 61 60 58 54 51 55 58 55 54 55 57 59 58 58 60 61 61 60 60 60 59 60 58 57 55 56 58 55 57 57 58 58 58
38 41 45 48 54 57 60 60 61 60 60 59 58 56 55 56 56 55 51 51 52 54 56 57 56 55 54 54 54 53 52 51 50 51 52 50 49 47 53 54 54 57 57
29 29 31 33 36 39 42 45 46 49 51 52 52 50 47 46 46 45 47 47 47 46 46 46 45 45 45 44 44 43 43 43 41 41 41 41 40 40 40 43 46 46 49
20 21 21 20 18 19 21 25 27 29 31 32 32 32 32 31 32 33 34 35 36 36 36 36 36 36 37 38 38 38 37 37 35 34 36 38 39 39 42 43 44 44 45
18 15 13 12 13 13 14 15 16 19 20 22 22 22 22 23 23 24 25 28 29 31 31 31 31 31 30 31 32 35 37 39 41 44 46 46 45 42 40 42 40 45 52
23 21 19 18 16 14 12 11 10 10 10 12 14 18 21 24 24 23 23 23 24 24 24 26 26 27 28 28 29 30 31 31 33 33 34 37 40 41 42 44 46 43 45
25 24 23 23 22 21 19 18 17 16 17 17 18 18 19 20 21 22 24 26 28 29 30 31 32 33 34 34 34 34 35 34 34 33 34 35 35 34 35 36 35 35 36
26 26 27 26 25 24 22 21 21 20 20 20 22 24 27 29 31 34 36 38 40 40 41 41 41 40 40 40 39 39 39 38 38 35 36 37 36 34 32 32 31 31 32
Wind_Direction_500mb
324 320 312 312 306 303 305 312 324 319 311 311 313 315 308 303 297 288 280 270 262 263 256 257 239 236 217 224 242 255 242 247 274 263 235 223 206 203 206 204 208 210 210
332 328 323 315 307 303 301 312 314 315 308 305 305 303 303 302 302 297 286 264 254 257 257 245 233 232 232 236 241 244 243 231 230 278 257 220 206 204 205 209 213 217 213
342 339 333 327 313 310 308 306 307 310 311 312 312 309 308 306 299 292 298 279 266 256 250 237 231 222 226 225 227 223 220 225 220 236 235 227 209 208 211 213 215 217 217
4 1 356 345 334 327 325 317 311 316 318 320 321 317 307 300 297 296 285 271 261 256 257 249 241 232 219 228 231 233 220 219 215 211 240 237 221 226 219 219 217 220 221
21 30 30 25 31 26 10 10 8 354 356 2 358 345 342 342 325 295 296 270 259 264 263 256 249 244 225 214 226 230 223 218 226 228 238 243 244 231 230 227 227 228 227
41 48 51 46 52 58 49 48 50 47 45 41 41 31 27 21 19 17 355 267 256 257 241 224 227 236 230 215 217 224 227 228 235 234 232 234 238 234 226 222 221 216 218
80 76 63 67 70 72 64 59 57 58 58 57 59 57 58 55 53 51 56 57 67 121 131 136 126 109 124 183 205 210 212 212 215 217 225 232 230 231 223 213 211 211 210
135 104 86 75 74 71 75 67 54 53 56 50 44 45 53 61 64 66 61 63 65 65 69 67 69 73 79 80 94 133 147 151 170 192 199 204 192 181 182 197 200 197 195
205 188 137 90 63 28 20 29 35 29 28 34 40 41 37 35 45 47 51 53 67 81 87 93 94 86 76 83 87 106 108 120 130 134 145 155 148 159 158 178 187 195 210
240 244 245 251 262 272 289 310 327 343 355 1 11 21 22 29 29 36 40 48 50 60 70 79 90 89 88 86 68 60 85 114 123 146 139 130 138 174 194 213 215 220 227
248 249 254 257 258 255 257 268 284 298 309 319 330 343 0 16 20 23 22 19 14 17 24 32 42 52 54 58 52 60 43 13 255 263 186 212 222 219 223 229 233 236 238
255 256 256 258 259 261 262 263 264 266 273 284 293 308 319 328 336 342 343 342 340 340 339 338 339 338 339 337 327 324 293 267 265 267 268 268 258 248 241 241 245 248 250
257 260 260 260 260 261 262 264 267 270 273 274 278 285 289 292 294 296 300 300 299 302 300 299 299 298 299 297 294 290 286 280 275 271 266 263 262 262 264 267 268 266 265
254 257 259 260 261 262 263 264 266 267 269 271 273 276 276 281 286 291 292 292 293 294 292 290 291 292 290 287 287 289 289 285 282 280 278 275 273 272 271 270 269 268 267
254 255 256 258 260 262 263 266 268 268 269 272 275 276 277 276 276 277 280 283 286 287 287 287 288 288 288 288 287 285 283 282 281 281 279 278 277 275 274 273 272 272 270
250 252 253 256 259 261 264 266 267 269 269 270 272 274 275 276 277 278 279 280 282 284 285 287 286 286 286 287 287 286 285 284 285 285 283 283 283 282 282 282 280 277 275
253 253 255 255 257 259 262 266 269 268 269 270 271 274 276 279 280 279 278 279 278 278 278 282 284 287 288 288 286 285 285 286 285 283 281 281 281 281 281 280 279 280 280
262 257 255 256 257 258 260 264 268 269 270 269 268 270 273 275 275 276 278 280 280 279 279 281 282 284 285 286 287 288 288 289 288 288 287 287 287 288 286 284 285 285 286
274 265 261 258 258 259 260 261 264 267 270 272 273 271 272 273 275 276 276 276 278 280 281 279 279 281 283 284 284 285 286 288 289 291 291 295 298 297 296 295 295 294 294
286 272 266 263 259 258 260 261 263 267 270 273 276 277 276 275 277 279 281 281 280 280 282 284 284 283 283 284 285 287 287 287 287 287 285 284 283 290 298 299 296 295 293
297 291 282 278 272 269 267 266 266 267 269 274 278 282 284 285 284 284 286 288 289 290 291 291 293 295 296 295 295 294 294 294 295 296 297 297 296 292 288 283 283 292 291
314 303 291 284 283 284 278 271 269 270 274 279 285 291 294 297 296 296 296 296 296 296 296 295 295 296 298 300 300 300 300 301 303 304 305 306 306 303 303 301 297 296 295
353 350 345 335 324 313 304 301 301 299 298 298 300 303 305 306 305 304 304 305 306 305 303 301 300 299 298 295 293 291 291 292 292 294 293 292 291 293 298 300 296 295 297
26 32 37 39 39 38 36 30 20 8 359 348 339 331 326 323 322 323 322 318 314 310 307 304 303 302 301 299 299 298 297 295 295 297 297 297 296 296 294 290 289 292 290
49 53 57 57 53 48 40 30 19 10 5 2 358 350 342 334 328 322 315 311 308 305 304 302 301 300 299 298 297 296 293 291 291 293 295 296 298 299 299 296 293 292 294
43 46 50 51 51 47 42 34 24 15 5 354 343 333 326 322 319 316 313 310 307 305 303 301 299 298 297 296 296 293 291 288 285 284 286 288 293 297 297 298 299 292 289
Wind_Speed_850mb
23 22 20 19 19 21 24 24 23 25 29 32 33 33 34 36 38 40 44 46 48 43 45 44 47 45 34 37 39 25 28 37 29 30 50 55 67 63 61 57 51 49 52
21 17 16 15 17 18 21 22 21 18 20 26 31 34 37 38 37 37 36 37 40 40 39 45 39 41 42 46 48 44 39 41 29 28 36 51 71 64 58 53 49 48 45
16 14 14 15 18 17 16 18 25 26 26 28 32 36 35 36 36 31 25 27 31 31 29 35 36 34 37 40 41 47 45 42 38 46 35 40 55 61 61 58 55 53 50
13 12 12 12 12 14 13 12 16 22 26 25 23 25 27 25 25 26 20 23 27 27 27 28 31 32 35 38 40 42 46 37 37 35 20 33 39 52 62 62 57 58 56
11 10 11 11 11 9 8 7 9 11 15 18 16 15 15 14 12 12 14 15 19 22 24 24 25 31 34 36 37 42 40 37 36 31 29 53 47 49 62 64 59 52 49
7 7 8 11 14 13 14 14 16 19 21 24 25 24 22 20 19 10 2 4 12 12 12 13 13 15 27 35 44 45 43 35 37 38 41 53 53 53 53 57 53 49 41
7 8 8 10 14 17 19 21 21 24 26 27 28 31 32 32 29 25 23 19 11 9 12 12 18 15 9 16 30 35 39 38 34 30 32 36 35 36 38 44 40 38 34
5 6 8 11 12 13 15 14 16 17 17 19 20 20 22 22 22 24 27 26 29 31 30 28 25 21 21 22 17 15 20 18 16 14 15 16 13 15 20 17 22 26 23
7 3 2 4 4 7 8 7 8 10 12 13 13 14 15 16 18 18 17 15 15 14 15 16 15 14 16 17 16 16 19 17 15 14 14 13 17 18 20 20 24 28 26
18 14 12 10 9 8 7 9 11 11 11 12 12 11 12 12 12 13 12 12 12 12 11 10 9 11 12 9 9 11 9 13 12 10 9 6 7 11 10 14 21 26 23
28 25 22 19 17 15 13 11 11 10 10 10 10 10 8 8 9 10 9 10 9 9 10 9 8 7 6 5 5 4 4 3 1 2 2 6 7 13 21 24 26 24 26
37 35 31 28 26 24 21 19 17 15 14 13 12 11 10 10 9 7 5 5 7 8 9 10 9 8 7 5 5 4 4 6 7 8 9 11 14 18 24 26 27 29 30
48 42 39 37 35 32 30 28 26 23 21 19 17 15 14 12 12 12 12 10 10 11 13 13 14 14 14 15 15 16 16 17 19 19 21 24 27 32 35 36 36 38 39
59 53 46 46 43 41 39 36 34 31 29 28 26 24 22 21 21 22 20 20 21 22 22 23 23 23 24 24 25 28 29 29 30 31 34 36 39 41 45 47 51 53 56
64 63 57 54 51 49 48 45 42 38 37 36 33 32 31 28 25 27 29 29 29 31 34 34 34 34 34 35 35 35 37 39 40 41 44 46 49 51 55 56 58 61 64
68 70 67 63 59 56 54 52 49 46 43 42 40 40 39 37 34 35 36 36 37 37 43 45 43 43 44 44 45 45 46 47 47 49 52 55 57 58 59 59 63 64 66
66 70 71 70 69 64 60 58 56 51 49 48 46 46 47 47 45 44 45 45 45 44 48 51 53 53 54 55 56 56 58 57 59 58 59 60 62 64 65 67 67 70 73
55 63 70 72 71 68 65 63 60 59 57 53 49 50 50 51 52 51 51 53 55 52 53 56 60 61 61 61 60 58 59 59 57 58 60 61 61 61 60 60 61 64 64
47 54 59 62 67 66 66 67 66 63 61 60 58 54 51 55 58 55 54 55 57 59 58 58 60 61 61 60 60 60 59 60 58 57 55 56 58 55 57 57 58 58 58
38 41 45 48 54 57 60 60 61 60 60 59 58 56 55 56 56 55 51 51 52 54 56 57 56 55 54 54 54 53 52 51 50 51 52 50 49 47 53 54 54 57 57
29 29 31 33 36 39 42 45 46 49 51 52 52 50 47 46 46 45 47 47 47 46 46 46 45 45 45 44 44 43 43 43 41 41 41 41 40 40 40 43 46 46 49
20 21 21 20 18 19 21 25 27 29 31 32 32 32 32 31 32 33 34 35 36 36 36 36 36 36 37 38 38 38 37 37 35 34 36 38 39 39 42 43 44 44 45
18 15 13 12 13 13 14 15 16 19 20 22 22 22 22 23 23 24 25 28 29 31 31 31 31 31 30 31 32 35 37 39 41 44 46 46 45 42 40 42 40 45 52
23 21 19 18 16 14 12 11 10 10 10 12 14 18 21 24 24 23 23 23 24 24 24 26 26 27 28 28 29 30 31 31 33 33 34 37 40 41 42 44 46 43 45
25 24 23 23 22 21 19 18 17 16 17 17 18 18 19 20 21 22 24 26 28 29 30 31 32 33 34 34 34 34 35 34 34 33 34 35 35 34 35 36 35 35 36
26 26 27 26 25 24 22 21 21 20 20 20 22 24 27 29 31 34 36 38 40 40 41 41 41 40 40 40 39 39 39 38 38 35 36 37 36 34 32 32 31 31 32
Wind_Direction_850mb
324 320 312 312 306 303 305 312 324 319 311 311 313 315 308 303 297 288 280 270 262 263 256 257 239 236 217 224 242 255 242 247 274 263 235 223 206 203 206 204 208 210 210
332 328 323 315 307 303 301 312 314 315 308 305 305 303 303 302 302 297 286 264 254 257 257 245 233 232 232 236 241 244 243 231 230 278 257 220 206 204 205 209 213 217 213
342 339 333 327 313 310 308 306 307 310 311 312 312 309 308 306 299 292 298 279 266 256 250 237 231 222 226 225 227 223 220 225 220 236 235 227 209 208 211 213 215 217 217
4 1 356 345 334 327 325 317 311 316 318 320 321 317 307 300 297 296 285 271 261 256 257 249 241 232 219 228 231 233 220 219 215 211 240 237 221 226 219 219 217 220 221
21 30 30 25 31 26 10 10 8 354 356 2 358 345 342 342 325 295 296 270 259 264 263 256 249 244 225 214 226 230 223 218 226 228 238 243 244 231 230 227 227 228 227
41 48 51 46 52 58 49 48 50 47 45 41 41 31 27 21 19 17 355 267 256 257 241 224 227 236 230 215 217 224 227 228 235 234 232 234 238 234 226 222 221 216 218
80 76 63 67 70 72 64 59 57 58 58 57 59 57 58 55 53 51 56 57 67 121 131 136 126 109 124 183 205 210 212 212 215 217 225 232 230 231 223 213 211 211 210
135 104 86 75 74 71 75 67 54 53 56 50 44 45 53 61 64 66 61 63 65 65 69 67 69 73 79 80 94 133 147 151 170 192 199 204 192 181 182 197 200 197 195
205 188 137 90 63 28 20 29 35 29 28 34 40 41 37 35 45 47 51 53 67 81 87 93 94 86 76 83 87 106 108 120 130 134 145 155 148 159 158 178 187 195 210
240 244 245 251 262 272 289 310 327 343 355 1 11 21 22 29 29 36 40 48 50 60 70 79 90 89 88 86 68 60 85 114 123 146 139 130 138 174 194 213 215 220 227
248 249 254 257 258 255 257 268 284 298 309 319 330 343 0 16 20 23 22 19 14 17 24 32 42 52 54 58 52 60 43 13 255 263 186 212 222 219 223 229 233 236 238
255 256 256 258 259 261 262 263 264 266 273 284 293 308 319 328 336 342 343 342 340 340 339 338 339 338 339 337 327 324 293 267 265 267 268 268 258 248 241 241 245 248 250
257 260 260 260 260 261 262 264 267 270 273 274 278 285 289 292 294 296 300 300 299 302 300 299 299 298 299 297 294 290 286 280 275 271 266 263 262 262 264 267 268 266 265
254 257 259 260 261 262 263 264 266 267 269 271 273 276 276 281 286 291 292 292 293 294 292 290 291 292 290 287 287 289 289 285 282 280 278 275 273 272 271 270 269 268 267
254 255 256 258 260 262 263 266 268 268 269 272 275 276 277 276 276 277 280 283 286 287 287 287 288 288 288 288 287 285 283 282 281 281 279 278 277 275 274 273 272 272 270
250 252 253 256 259 261 264 266 267 269 269 270 272 274 275 276 277 278 279 280 282 284 285 287 286 286 286 287 287 286 285 284 285 285 283 283 283 282 282 282 280 277 275
253 253 255 255 257 259 262 266 269 268 269 270 271 274 276 279 280 279 278 279 278 278 278 282 284 287 288 288 286 285 285 286 285 283 281 281 281 281 281 280 279 280 280
262 257 255 256 257 258 260 264 268 269 270 269 268 270 273 275 275 276 278 280 280 279 279 281 282 284 285 286 287 288 288 289 288 288 287 287 287 288 286 284 285 285 286
274 265 261 258 258 259 260 261 264 267 270 272 273 271 272 273 275 276 276 276 278 280 281 279 279 281 283 284 284 285 286 288 289 291 291 295 298 297 296 295 295 294 294
286 272 266 263 259 258 260 261 263 267 270 273 276 277 276 275 277 279 281 281 280 280 282 284 284 283 283 284 285 287 287 287 287 287 285 284 283 290 298 299 296 295 293
297 291 282 278 272 269 267 266 266 267 269 274 278 282 284 285 284 284 286 288 289 290 291 291 293 295 296 295 295 294 294 294 295 296 297 297 296 292 288 283 283 292 291
314 303 291 284 283 284 278 271 269 270 274 279 285 291 294 297 296 296 296 296 296 296 296 295 295 296 298 300 300 300 300 301 303 304 305 306 306 303 303 301 297 296 295
353 350 345 335 324 313 304 301 301 299 298 298 300 303 305 306 305 304 304 305 306 305 303 301 300 299 298 295 293 291 291 292 292 294 293 292 291 293 298 300 296 295 297
26 32 37 39 39 38 36 30 20 8 359 348 339 331 326 323 322 323 322 318 314 310 307 304 303 302 301 299 299 298 297 295 295 297 297 297 296 296 294 290 289 292 290
49 53 57 57 53 48 40 30 19 10 5 2 358 350 342 334 328 322 315 311 308 305 304 302 301 300 299 298 297 296 293 291 291 293 295 296 298 299 299 296 293 292 294
43 46 50 51 51 47 42 34 24 15 5 354 343 333 326 322 319 316 313 310 307 305 303 301 299 298 297 296 296 293 291 288 285 284 286 288 293 297 297 298 299 292 289